Etusivu
METAR-TAF:

METAR-TAF

Lentoasemat :

Flag Island, Minnesota, Yhdysvallat

Leveyspiiri: 49-19N, Pituuspiiri: 094-54W, korkeus merenpinnasta: 329 m

Tämänhetkinen sää

Tämä raportti tehtiin 9 minuuttia sitten, kello 13.15 UTC
tyyntä
Lämpötila -7°C
Kosteus 93%
Ilmanpaine 1016 hPa
Näkyvyys: 3.2 km
utua

METAR: KFGN 251315Z AUTO 00000KT 2SM BR M07/M08 A2999 RMK AO2

Aika: 07:24 (13:24 UTC)


TAF: puuttuu

Säähavainnot ja -ennusteet yli 4000 lentoasemalta (METAR- ja TAF-raportit).

Käytössä olevat sääasemat on merkitty karttaan keltaisilla ja punaisilla pisteillä.

Aseta hiiri pisteen päälle nähdäksesi sääaseman nimen.

Klikkaa sitten nähdäksesi säähavainnot ja -ennusteet.

Kartan vaihtaminen: klikkaa mustalla rastilla varustettuja vihreitä pisteitä, niin voit zoomata sisään; viivalla varustettua vihreää pistettä, niin voit zoomata ulos tai vihreitä nuolia, niin pääset viereisille kartoille.


METAR-TAF: